Location: Crescent
(42.8242°N, 73.7329°W)
Time: 19:39:15
(UTC+00:00)

Transit 4A - Pass Details

Date: 19 February 2026
Orbit: 864 x 977 km, 66.8° (Epoch: 10 March)

Event Time Altitude Azimuth Distance (km) Brightness Sun altitude
Rises 11:02:57 0° 283° (WNW) 3,496 - -8.6°
Exits shadow 11:05:53 - 302° (WNW) 2,844 9.9 -8.1°
Reaches altitude 10° 11:07:51 10° 319° (NW) 2,590 9.8 -7.7°
Maximum altitude 11:09:24 11° 334° (NNW) 2,533 9.9 -7.5°
Drops below altitude 10° 11:10:57 10° 349° (N) 2,613 10.1 -7.2°
Sets 11:16:00 0° 25° (NNE) 3,594 11.2 -6.3°
